Chillicothe, MO

6:31 PM CST on November 18, 2019 (GMT -0600)
Chillicothe

Weather History for KCDJ - July, 2019

Change the Weather History Date:

Monday, July 15, 2019

  Actual Average (KIRK) Record (KIRK)
Temperature  
Mean Temperature 77 °F -  
Max Temperature 86 °F 87 °F 113 °F (1936)
Min Temperature 70 °F 65 °F 50 °F (1930)
Cooling Degree Days 12    
Growing Degree Days 27 (Base 50)    
Moisture  
Dew Point 67 °F    
Average Humidity 72    
Maximum Humidity 87    
Minimum Humidity 56    
Precipitation  
Precipitation 0.00 in - - ()
Sea Level Pressure  
Sea Level Pressure 29.95 in    
Wind  
Wind Speed 6 mph (SE)    
Max Wind Speed 10 mph    
Max Gust Speed 21 mph    
Averages and records for this station are not official NWS values.
T = Trace of Precipitation, MM = Missing Value Source: NWS Daily Summary

Daily Weather History Graph

Daily Weather History Graph

Search for Another Location

Airport or City:

Astronomy

Jul. 15, 2019 Rise Set
Actual Time 5:58 AM CDT 8:41 PM CDT
Civil Twilight 5:26 AM CDT 9:13 PM CDT
Nautical Twilight 4:47 AM CDT 9:52 PM CDT
Astronomical Twilight 4:01 AM CDT 10:37 PM CDT
Moon 7:59 PM CDT (7/15) 4:46 AM CDT (7/15)
Length of Visible Light 15h 46m
Length of Day
14h 43m
Waxing Gibbous, 99% of the Moon is Illuminated
Jul 15
Waxing Gibbous
Jul 16
Full
Jul 24
Last Quarter
Jul 31
New
Aug 7
First Quarter

Hourly Weather History & Observations

Time (CDT) Temp. Heat Index Dew Point Humidity Pressure Visibility Wind Dir Wind Speed Gust Speed Precip Events Conditions
12:52 AM 78.1 °F - 69.1 °F 74% 30.02 in - SSE 6.9 mph - N/A   Unknown
1:52 AM 75.9 °F - 68.0 °F 76% 30.01 in - SSE 8.1 mph - N/A   Unknown
2:52 AM 73.9 °F - 66.0 °F 76% 30.00 in - SSE 8.1 mph - N/A   Unknown
3:52 AM 72.0 °F - 66.0 °F 81% 29.99 in - South 5.8 mph - N/A   Unknown
4:52 AM 71.1 °F - 66.0 °F 84% 29.99 in - SSE 3.5 mph - N/A   Unknown
5:52 AM 70.0 °F - 66.0 °F 87% 30.01 in - Calm Calm - N/A   Unknown
6:52 AM 71.1 °F - 66.0 °F 84% 30.02 in - Calm Calm - N/A   Unknown
7:52 AM 73.9 °F - 66.0 °F 76% 30.03 in - Calm Calm - N/A   Unknown
8:52 AM 75.9 °F - 66.0 °F 71% 30.02 in - South 5.8 mph - N/A   Unknown
9:52 AM 79.0 °F - 66.0 °F 64% 30.00 in - SSW 6.9 mph - N/A   Unknown
10:52 AM 81.0 °F 83.0 °F 66.0 °F 60% 29.98 in - ESE 6.9 mph - N/A   Unknown
12:52 PM 84.0 °F 86.5 °F 66.9 °F 56% 29.95 in - ESE 6.9 mph 18.4 mph N/A   Unknown
1:52 PM 84.0 °F 87.0 °F 68.0 °F 58% 29.94 in - SE 8.1 mph 20.7 mph N/A   Unknown
2:52 PM 82.9 °F 86.5 °F 69.1 °F 63% 29.94 in - SE 9.2 mph 18.4 mph N/A   Unknown
3:52 PM 82.9 °F 85.8 °F 68.0 °F 60% 29.91 in - Variable 6.9 mph - N/A   Unknown
4:52 PM 84.0 °F 86.5 °F 66.9 °F 56% 29.90 in - ESE 10.4 mph 18.4 mph N/A   Unknown
5:52 PM 82.9 °F 85.8 °F 68.0 °F 60% 29.89 in - ESE 9.2 mph - N/A   Unknown
6:52 PM 81.0 °F 83.8 °F 68.0 °F 65% 29.88 in - ESE 8.1 mph - N/A   Unknown
7:52 PM 79.0 °F - 68.0 °F 69% 29.87 in - ESE 8.1 mph - N/A   Unknown
8:52 PM 77.0 °F - 68.0 °F 74% 29.88 in - Variable 4.6 mph - N/A   Unknown
9:52 PM 73.9 °F - 68.0 °F 82% 29.90 in - East 3.5 mph - N/A   Unknown
10:52 PM 72.0 °F - 68.0 °F 87% 29.91 in - Calm Calm - N/A   Unknown
11:52 PM 73.0 °F - 68.0 °F 84% 29.90 in - Calm Calm - N/A   Unknown